星链-2282 (STARLINK-2282 )

导读 | 豆包AI

STARLINK-2282是美国太空探索技术公司星链星座的卫星之一,于北京时间2021年3月24日发射入轨,承担星链全球卫星互联网通信组网任务。作为低轨卫星,它依托星链星座框架,可为全球多地提供高速互联网服务,补充地面网络覆盖的盲区,是美国星链网络部署进程中的重要组成单元。

基本信息
目录编号:
48018
目录名称:
STARLINK-2282
国际标识:
2021-024AT
轨道中心:
EARTH
卫星名称:
星链-2282
卫星全名:
星链-2282 (STARLINK-2282 )
卫星状态:
已陨落 最后检测时间 2025-10-06
发射日期:
2021-03-24 UTC
国别 :
美国 (US)
星等 :
--
轨道信息
数据来源 国际轨道数据
星历时间: 2025-10-06T12:16:30+0800
轨道信息已过期159天
半长轴: 6542.938km
偏心率: 0.0004477
轨道倾角: 52.996°
近地点辐角 226.751°
升交点赤经 205.315°
平近点角 133.317°
近地点: 161.873km
远地点: 167.733km
周期: 87.785分钟
每日圈数: 16.403767
详细信息
固有亮度:
5
最大亮度:
2.5
卫星平台:
Starlink V1.0
覆盖范围:
全球
运营商:
太空探索技术公司
运营商所在国:
美国
制造商(研发单位):
太空探索技术公司
制造商所在国:
美国
使用方式:
暂无
卫星简介
星链(Starlink)计划是由太空探索技术公司(SpaceX)提出的一个巨型低轨卫星互联网星座项目,计划在2019年至2024年间在太空搭建由约1.2万颗卫星组成的“星链”网络,其中1584颗将部署在地球上空550千米处的近地轨道,并从2020年开始工作。该卫星仍在工作。